Location: Goettingen
(51.5300°N, 9.9433°E)
Time: 06:02:32
(UTC+01:00)

ISS - Pass Details

Date: 09 November 2018
Orbit: 402 x 408 km, 51.6° (Epoch: 16 November)

Event Time Altitude Azimuth Distance (km) Brightness Sun altitude
Exits shadow 05:15:36 69° 141° (SE) 437 -3.7 -20.6°
Drops below altitude 10° 05:18:36 10° 107° (ESE) 1,463 0.1 -20.1°
Sets 05:20:41 0° 106° (ESE) 2,324 1.5 -19.8°
